Location: *
(40.4270°N, 9.4940°E)
Time: 11:26:10
(UTC+02:00)

Okean 2 - Visible Passes

Search period start: 16 September 2014 00:00
Search period end: 26 September 2014 00:00
Orbit: 569 x 588 km, 82.5° (Epoch: 15 September)

Date Brightness Start Highest point End Pass type
(mag) Time Alt. Az. Time Alt. Az. Time Alt. Az.
16 Sep 6.4 04:35:24 10° ESE 04:37:28 14° E 04:39:31 10° NE visible
16 Sep 3.8 06:10:03 10° SSW 06:14:03 44° W 06:18:03 10° N visible
17 Sep 6.1 04:39:06 10° SE 04:41:59 19° E 04:44:53 10° NE visible
17 Sep 4.2 06:15:01 10° SW 06:18:45 31° WNW 06:22:30 10° NNW visible
18 Sep 5.5 04:43:26 12° SE 04:46:32 25° E 04:49:58 10° NE visible
18 Sep 4.6 06:20:07 10° SW 06:23:29 23° WNW 06:26:50 10° NNW visible
19 Sep 4.9 04:49:05 22° SE 04:51:06 34° E 04:54:53 10° NNE visible
19 Sep 5.0 06:25:28 10° WSW 06:28:13 17° WNW 06:31:01 10° NNW visible
20 Sep 4.2 04:54:37 38° SE 04:55:40 48° E 04:59:41 10° NNE visible
20 Sep 5.3 06:31:06 10° W 06:32:59 13° WNW 06:34:52 10° NW visible
21 Sep 3.6 05:00:03 68° ESE 05:00:16 70° E 05:04:24 10° NNE visible
22 Sep 3.5 05:05:22 68° N 05:05:22 68° N 05:09:02 10° N visible
23 Sep 4.1 05:10:38 42° NNW 05:10:38 42° NNW 05:13:36 10° N visible
24 Sep 6.7 03:39:28 11° ENE 03:39:28 11° ENE 03:39:42 10° NE visible
24 Sep 4.7 05:15:49 28° NNW 05:15:49 28° NNW 05:18:05 10° N visible
25 Sep 6.6 03:44:35 12° NE 03:44:35 12° NE 03:44:58 10° NE visible
25 Sep 5.2 05:20:56 19° NNW 05:20:56 19° NNW 05:22:28 10° NNW visible
